Weather in Urukhskaya

Russia / Stavropol Krai     44°09′10″N   43°39′57″E
temp.,
°C
wind,
m/s
gust,
m/s
humid.,
%
clouds,
%
prec.,
mm/h
press.,
hPa
HPBL,
m
1 july, fri
fri100:00+20s248369 0.0 1012113
03:00+18ese227333 0.0 101112
06:00+19nw117315 0.9 101151
09:00+23nw226352 2.6 1011627
12:00+28n324499 0.4 10101587
15:00+28nnw2343100 0.4 10091563
18:00+26wsw4654100 0.0 1009262
21:00+22wsw356592 0.0 101078
2 july, sat
sat200:00+18wnw475887 0.0 1010110
03:00+17wnw48652 0.0 1009124
06:00+18nw410650 0.0 1010336
09:00+22nnw68470 0.0 10111052
12:00+23nnw794499 0.0 10122143
15:00+25nw910285 0.0 10112393
18:00+22nw79330 0.0 10131939
21:00+17wnw512480 0.0 1015312
3 july, sun
sun300:00+15w514520 0.0 1015331
03:00+15wnw715500 0.0 1014453
06:00+17wnw713530 0.0 1015681
09:00+22wnw911440 0.0 10151451
12:00+25wnw810360 0.0 10142214
15:00+27nw89293 0.0 10132623
18:00+25wnw68331 0.0 10132260
21:00+20w6134729 0.0 1015320
4 july, mon
mon400:00+19wnw5124777 0.0 1015266
03:00+17wnw410545 0.0 1015175
06:00+18wnw310555 0.0 1016267
09:00+25nw45375 0.0 10151234
12:00+28wnw443049 0.0 10142766
15:00+29nw553095 0.0 10132990
18:00+27nnw553758 0.0 10141443
21:00+21wsw465530 0.0 101586
5 july, tue
tue500:00+20w245595 0.0 101481
03:00+19w395977 0.0 1014179
06:00+20wnw485610 0.0 1016289
09:00+25nne44460 0.0 10161035
12:00+28nne453684 0.0 10162565
15:00+29nne23302 0.0 10152210
18:00+28ne54280 0.0 10151416
21:00+20ene364113 0.0 101781